Volver al catálogo

STARLINK-6298

ActivoComunicacionesVLEO
NORAD 56391·PAYLOAD·🇺🇸 United States

Lanzado May 4, 2023 desde Cape Canaveral Space Force Station

Loading…

Próximos Pases (próximas 24 horas)

TLE

ActualizadoSource: CelesTrak SupGP

Época: Sep 14, 2026, 20:51 UTC

1 56391C 23061T   26257.86923611  .00018700  00000+0  67743-3 0  2576
2 56391  43.0027 209.2429 0001386 262.0511 159.4149 15.27564032    14

Sigue STARLINK-6298 en tiempo real con AllMySat

Download on the App Store